Temperature
-9 -9 -8 -8 -7 -7 -7 -6 -5 -4 -4 -3 -1 1 3 5 7 8 9 10 10 10 11 11 12 12 12 13 13 14 14 14 14 14 14 14 14 14
-9 -9 -8 -8 -7 -7 -7 -6 -5 -5 -4 -3 -2 -1 2 4 6 7 8 9 9 10 10 11 11 12 12 12 13 13 13 13 14 14 14 14 14 14
-9 -9 -8 -8 -7 -7 -6 -6 -5 -5 -4 -3 -3 -1 0 3 4 5 7 8 9 9 10 10 11 11 11 12 12 12 13 13 13 13 13 13 13 13
-9 -9 -8 -8 -7 -7 -6 -6 -5 -5 -4 -3 -3 -2 -0 1 3 4 5 7 8 9 9 10 10 11 11 11 12 12 12 12 12 12 12 12 12 12
-9 -9 -8 -8 -8 -7 -7 -6 -5 -5 -4 -3 -3 -2 -1 1 1 3 4 6 7 8 9 9 10 10 11 11 11 12 12 12 12 12 12 12 12 12
-9 -9 -9 -8 -8 -8 -7 -7 -6 -5 -4 -3 -3 -2 -1 -0 0 2 3 5 6 8 8 9 10 10 11 11 11 12 12 12 12 12 12 12 11 11
-9 -9 -9 -9 -9 -8 -8 -8 -7 -6 -5 -4 -3 -2 -1 -0 0 1 2 4 6 7 8 9 9 10 10 10 11 11 12 12 12 12 12 12 11 11
-10 -9 -9 -9 -9 -9 -9 -8 -8 -7 -7 -5 -4 -3 -2 -1 0 1 2 3 5 7 7 8 8 9 10 10 11 11 11 12 12 12 11 11 11 11
-10 -10 -10 -10 -10 -9 -9 -8 -8 -8 -8 -7 -6 -5 -3 -2 -0 1 2 3 4 6 7 7 8 8 9 10 10 11 11 11 11 11 11 10 10 10
-11 -11 -11 -10 -10 -10 -10 -9 -9 -8 -8 -7 -7 -6 -5 -3 -2 0 2 3 4 5 6 6 7 7 8 8 9 10 10 10 10 10 10 10 9 9
-11 -11 -11 -11 -11 -11 -10 -10 -9 -9 -8 -8 -7 -6 -5 -4 -2 -0 1 2 3 4 5 6 6 7 7 7 8 8 9 9 9 9 9 9 8 8
-12 -12 -12 -12 -12 -11 -11 -11 -11 -10 -8 -7 -7 -6 -5 -4 -3 -1 0 2 3 4 5 5 6 6 6 6 7 7 8 8 8 8 8 8 7 6
-13 -13 -13 -13 -12 -12 -12 -12 -12 -10 -9 -9 -8 -7 -6 -4 -3 -2 -1 1 2 3 4 5 5 6 6 5 5 5 6 6 6 6 6 5 5 5
-14 -14 -14 -13 -13 -13 -13 -12 -11 -10 -10 -9 -9 -8 -7 -6 -4 -3 -2 0 1 3 4 5 5 6 6 4 3 3 3 3 3 3 2 2 2 3
-14 -14 -14 -14 -13 -13 -13 -12 -11 -11 -11 -11 -10 -10 -9 -8 -5 -4 -2 -1 1 2 3 4 5 5 6 5 3 2 2 1 1 2 1 2 2 2
-13 -13 -14 -14 -14 -13 -13 -13 -12 -12 -12 -11 -11 -10 -10 -8 -7 -4 -3 -1 -0 1 2 3 3 4 4 4 4 2 2 1 1 1 1 1 1 1
-14 -13 -14 -14 -14 -14 -14 -14 -13 -13 -12 -12 -11 -11 -10 -9 -8 -7 -4 -2 -1 -0 0 1 1 2 2 2 1 1 1 1 1 0 0 0 -0 -0
-14 -14 -14 -14 -15 -15 -15 -15 -14 -14 -14 -13 -12 -11 -11 -10 -10 -9 -7 -5 -4 -3 -2 -1 -0 0 0 -1 -1 0 1 1 0 0 0 -0 -0 -0
-14 -14 -14 -15 -15 -15 -15 -15 -15 -15 -14 -14 -13 -12 -12 -11 -10 -10 -9 -8 -7 -5 -4 -2 -1 -0 -1 -3 -4 -1 -0 -0 -0 -0 -1 -0 -0 -0
-14 -14 -14 -15 -15 -15 -15 -15 -15 -15 -14 -14 -14 -13 -13 -12 -11 -11 -10 -9 -8 -7 -5 -4 -3 -2 -1 -3 -4 -4 -2 -1 -1 -1 -1 -1 -1 -1
-14 -14 -15 -15 -15 -15 -15 -15 -15 -15 -15 -14 -14 -14 -13 -13 -12 -12 -11 -10 -9 -8 -7 -7 -6 -4 -3 -2 -3 -5 -4 -3 -2 -2 -2 -2 -2 -2
-14 -14 -14 -14 -15 -15 -15 -15 -15 -15 -15 -14 -14 -14 -14 -13 -13 -13 -12 -12 -11 -11 -10 -10 -8 -7 -5 -4 -5 -6 -6 -6 -5 -4 -4 -3 -3 -3
-13 -13 -14 -14 -14 -14 -14 -14 -15 -14 -14 -14 -14 -14 -14 -14 -14 -13 -13 -13 -12 -12 -11 -11 -10 -8 -8 -7 -7 -8 -8 -8 -7 -7 -6 -5 -4 -3
Wind_Speed
13 13 10 9 9 10 10 10 11 13 13 8 5 5 6 6 12 13 12 13 14 16 17 18 19 20 21 23 26 29 31 31 30 30 29 28 27 26
12 12 11 9 9 10 10 10 10 12 13 8 8 10 11 13 16 14 14 17 12 13 14 15 16 17 18 20 22 25 27 29 29 30 30 29 28 27
13 12 12 12 10 9 10 10 10 10 14 13 10 9 11 11 11 10 12 9 6 9 12 14 14 14 15 16 18 21 24 27 29 29 30 31 30 29
13 12 12 10 11 10 9 9 9 10 11 14 10 8 10 9 9 11 11 8 5 7 10 12 13 14 14 14 16 18 22 26 30 31 31 31 31 30
10 9 10 10 11 10 9 9 8 9 9 10 10 7 6 6 7 9 11 8 5 5 7 10 12 14 14 14 15 16 20 25 29 32 33 33 31 32
7 8 9 10 11 11 9 10 10 9 9 8 7 6 5 5 4 6 7 5 4 2 3 5 9 13 14 15 16 17 18 22 26 29 30 33 35 35
8 9 10 15 20 16 12 12 12 10 9 8 6 5 4 3 3 3 6 5 3 2 2 3 4 5 7 12 15 17 18 21 23 25 29 34 36 36
11 11 11 12 19 22 23 21 19 14 12 10 7 6 5 4 4 3 4 4 3 2 3 2 3 4 5 5 13 18 19 20 23 26 30 33 35 36
13 12 13 15 15 11 17 21 19 22 20 13 10 10 8 7 7 5 4 3 2 2 3 2 2 3 2 5 15 19 21 23 27 31 34 35 36 37
14 14 13 14 16 15 13 13 12 13 17 12 10 11 11 10 7 6 5 4 2 0 2 3 2 3 3 3 15 21 24 29 33 37 40 41 41 40
13 16 16 13 25 25 17 15 14 13 18 22 20 18 19 19 14 5 3 3 2 1 2 3 4 4 5 4 10 24 30 35 39 42 44 44 43 39
11 14 21 22 26 26 16 15 16 14 15 16 16 17 15 15 18 9 5 3 1 2 1 3 4 4 5 5 8 13 22 33 39 42 43 42 39 29
11 11 13 25 25 26 22 16 19 16 13 13 12 12 12 11 12 11 8 4 2 1 1 3 4 4 6 5 6 9 13 16 22 29 34 35 32 28
11 10 13 24 24 25 20 23 25 19 12 12 12 12 13 13 12 12 11 7 3 1 1 1 4 7 11 11 7 8 12 12 14 14 19 27 27 27
9 18 20 23 21 17 23 26 20 14 12 12 13 12 12 12 12 11 10 7 7 8 6 3 5 9 12 13 11 10 10 10 10 12 13 12 14 16
8 14 19 20 18 19 19 16 13 13 13 12 12 12 12 12 12 11 9 8 6 9 12 12 8 10 12 14 18 17 11 8 9 12 13 12 15 16
7 7 9 10 12 12 12 12 12 13 13 12 12 12 13 13 12 12 11 10 8 7 9 11 16 18 16 13 15 14 15 15 13 13 14 13 10 13
8 6 7 8 9 10 10 11 11 12 12 12 12 12 12 12 12 11 11 11 11 10 8 6 11 16 14 16 16 12 15 15 12 11 13 13 10 8
5 4 5 5 6 7 7 7 8 8 9 9 10 11 11 11 11 12 12 11 11 11 11 9 5 10 16 10 11 15 12 14 14 12 9 8 8 7
3 3 4 4 4 5 5 5 6 7 7 8 9 9 10 10 11 11 12 13 12 12 13 13 12 10 11 10 7 9 15 11 12 12 11 10 9 10
4 4 4 4 3 4 4 5 5 5 6 6 7 8 8 9 10 11 11 16 14 13 14 13 12 14 11 11 12 11 12 17 13 9 9 8 6 4
5 4 4 4 3 3 3 4 4 5 6 5 6 6 7 7 9 10 10 10 11 11 12 11 12 12 12 14 16 13 11 11 16 19 14 9 4 5
6 5 4 4 4 3 3 3 3 4 4 4 5 5 6 6 6 7 9 9 10 11 11 11 12 13 13 14 14 12 13 11 9 10 10 14 13 11
Wind_Direction
304 302 300 298 297 294 289 283 284 292 296 294 295 306 331 324 325 329 316 281 235 213 205 202 203 204 204 205 202 197 193 190 187 184 185 185 184 182
303 301 301 298 296 292 288 284 277 277 280 285 294 307 313 309 311 320 313 303 253 212 197 193 195 198 200 201 202 200 196 189 184 182 184 184 181 178
305 304 304 301 298 294 290 283 278 276 277 284 283 288 288 291 300 306 307 300 272 217 192 185 186 190 192 195 197 196 193 187 182 182 185 184 180 174
303 306 310 314 311 305 300 293 288 280 280 284 286 281 276 280 290 297 303 296 271 222 190 181 183 187 189 192 194 193 189 184 180 181 186 187 181 170
305 316 321 330 333 331 326 326 318 307 293 286 285 278 272 273 279 288 289 285 269 226 193 186 186 189 191 193 193 192 189 186 183 184 184 182 174 166
326 334 342 350 352 346 348 351 341 330 320 302 287 278 268 255 245 266 279 277 265 226 179 175 186 191 194 195 195 192 190 189 187 185 180 171 164 161
2 358 1 15 11 8 9 6 358 354 350 338 316 295 282 265 232 236 255 265 258 212 170 170 170 179 190 198 196 192 189 189 186 180 170 162 157 155
14 4 6 14 17 11 11 14 12 9 6 359 346 333 331 329 315 270 245 236 225 195 155 161 158 174 181 189 190 186 185 180 173 164 157 152 148 145
13 10 13 9 22 11 6 10 10 11 13 7 355 346 339 339 329 308 272 240 220 181 137 148 134 154 150 179 179 176 172 164 155 147 141 137 134 131
12 8 11 5 16 20 5 4 6 5 4 3 358 350 347 344 326 296 291 288 282 4 111 134 121 107 92 132 161 158 152 145 140 135 131 127 124 122
10 9 13 11 14 19 12 4 5 3 1 2 4 3 1 358 360 336 289 232 192 142 54 118 118 91 70 83 128 136 135 133 131 129 127 125 123 119
9 6 9 16 14 18 16 7 8 2 355 354 357 358 357 356 3 2 341 298 196 147 153 121 125 114 82 52 96 117 122 124 125 125 124 124 122 120
11 7 6 14 14 16 18 13 11 8 357 355 355 355 357 358 354 350 342 315 281 160 188 127 121 105 112 105 73 92 112 117 117 118 118 120 121 122
7 6 9 16 15 15 17 15 13 12 4 2 2 1 359 356 349 343 339 335 348 33 355 127 133 142 132 127 110 92 89 97 109 111 113 113 112 115
10 16 18 19 16 12 14 16 14 10 8 5 2 358 352 349 350 350 349 350 27 39 30 46 131 137 134 133 128 123 103 84 92 105 106 107 110 112
13 10 16 16 18 14 14 13 12 11 12 5 358 353 354 359 6 5 5 2 34 41 37 47 73 112 121 123 131 130 120 114 109 104 102 95 91 94
13 7 9 10 12 11 10 11 10 11 11 7 5 2 3 6 11 12 18 26 45 49 56 64 71 74 73 102 120 120 118 115 117 116 107 98 85 92
17 5 7 8 9 7 6 6 8 10 9 8 9 7 6 8 12 17 25 32 42 43 45 60 105 102 85 55 49 106 112 114 112 107 112 111 101 89
11 344 345 348 349 353 354 355 358 358 1 8 12 10 10 12 17 22 25 31 37 42 39 33 53 120 116 98 40 47 100 112 111 103 96 106 116 116
325 318 321 328 334 339 343 346 347 353 0 6 10 12 15 18 23 25 29 33 37 43 48 46 47 71 102 109 101 61 64 92 107 107 105 101 98 104
298 299 300 309 318 328 333 339 344 350 356 359 8 12 16 23 29 29 33 38 43 46 51 48 49 66 84 92 94 82 66 71 85 102 114 112 108 100
276 277 282 288 298 308 318 332 343 350 355 0 2 8 14 24 30 33 37 40 43 47 53 53 53 63 75 92 98 96 88 78 79 81 78 87 118 135
270 264 262 268 273 274 280 306 330 340 349 355 0 5 12 23 26 34 39 44 48 50 55 60 63 69 77 86 93 95 92 89 86 80 67 69 80 91
Height
1419 1417 1415 1412 1409 1406 1404 1402 1399 1392 1386 1384 1385 1387 1389 1392 1396 1399 1403 1408 1414 1420 1425 1430 1435 1441 1448 1454 1461 1468 1475 1481 1488 1495 1501 1508 1514 1520
1416 1413 1411 1408 1404 1401 1399 1396 1395 1392 1386 1381 1383 1383 1384 1386 1390 1393 1397 1402 1407 1413 1419 1424 1430 1435 1442 1448 1455 1461 1468 1475 1482 1489 1496 1503 1509 1515
1412 1410 1407 1404 1400 1397 1394 1391 1389 1387 1383 1378 1380 1379 1380 1382 1385 1389 1392 1397 1402 1408 1413 1419 1424 1430 1436 1442 1449 1455 1462 1468 1475 1482 1490 1498 1505 1511
1409 1407 1404 1401 1397 1393 1389 1386 1384 1382 1380 1376 1376 1376 1376 1378 1380 1383 1387 1392 1397 1402 1408 1413 1419 1424 1430 1436 1443 1450 1457 1463 1470 1476 1483 1492 1500 1506
1408 1406 1403 1399 1395 1391 1386 1382 1379 1377 1375 1373 1372 1373 1374 1375 1377 1380 1383 1387 1392 1397 1403 1408 1413 1419 1424 1430 1437 1445 1451 1458 1465 1472 1478 1485 1493 1501
1408 1405 1402 1399 1394 1390 1385 1381 1377 1373 1371 1369 1369 1370 1371 1373 1375 1377 1380 1384 1388 1393 1398 1403 1409 1414 1419 1425 1432 1439 1446 1453 1460 1467 1474 1481 1488 1495
1409 1406 1403 1399 1395 1390 1385 1380 1375 1371 1368 1366 1366 1367 1369 1370 1372 1375 1378 1381 1384 1388 1394 1399 1404 1408 1413 1419 1426 1432 1440 1448 1455 1462 1469 1476 1483 1490
1410 1407 1404 1399 1394 1389 1384 1380 1376 1372 1368 1365 1365 1365 1366 1367 1369 1372 1376 1378 1381 1384 1389 1395 1400 1404 1409 1415 1420 1427 1435 1442 1449 1457 1464 1472 1479 1485
1413 1409 1406 1402 1396 1390 1384 1380 1375 1371 1369 1366 1364 1364 1364 1364 1365 1368 1371 1374 1377 1381 1386 1391 1396 1401 1405 1410 1416 1423 1430 1437 1444 1451 1459 1468 1475 1481
1416 1412 1408 1403 1399 1392 1386 1380 1375 1371 1369 1366 1364 1362 1361 1362 1363 1365 1367 1370 1374 1378 1383 1388 1393 1398 1403 1407 1413 1419 1425 1432 1439 1447 1455 1463 1470 1477
1419 1415 1411 1406 1401 1394 1388 1382 1377 1373 1369 1366 1363 1360 1359 1359 1359 1361 1363 1367 1370 1374 1379 1384 1390 1396 1401 1406 1411 1417 1423 1430 1437 1444 1451 1458 1466 1473
1421 1417 1413 1409 1403 1397 1390 1384 1379 1374 1370 1366 1362 1359 1357 1356 1356 1357 1359 1363 1367 1372 1376 1381 1386 1392 1399 1406 1411 1416 1423 1429 1435 1441 1448 1455 1462 1469
1424 1420 1416 1411 1405 1400 1394 1389 1384 1379 1373 1368 1363 1359 1356 1354 1353 1354 1356 1360 1365 1368 1373 1378 1382 1387 1393 1404 1411 1416 1421 1427 1434 1440 1448 1455 1463 1470
1428 1424 1419 1414 1408 1402 1397 1392 1387 1381 1376 1370 1365 1360 1356 1353 1352 1353 1355 1357 1361 1366 1371 1375 1379 1384 1389 1400 1409 1416 1422 1428 1433 1440 1448 1458 1467 1475
1432 1428 1423 1417 1410 1404 1400 1395 1389 1384 1379 1374 1369 1364 1360 1356 1354 1354 1355 1357 1360 1364 1369 1374 1378 1383 1388 1394 1404 1415 1422 1430 1437 1443 1451 1459 1467 1475
1435 1430 1425 1420 1414 1409 1403 1398 1393 1389 1385 1380 1375 1371 1365 1360 1356 1354 1355 1356 1359 1363 1368 1373 1378 1382 1387 1394 1401 1413 1423 1431 1440 1446 1453 1461 1469 1477
1437 1433 1427 1422 1416 1411 1407 1402 1398 1393 1389 1385 1381 1376 1370 1365 1361 1358 1356 1357 1359 1363 1368 1373 1376 1381 1388 1395 1402 1411 1421 1431 1441 1448 1454 1461 1469 1477
1439 1434 1430 1426 1421 1417 1412 1408 1403 1399 1395 1391 1386 1382 1377 1373 1369 1365 1362 1361 1362 1364 1369 1374 1378 1382 1389 1397 1405 1412 1420 1430 1440 1449 1457 1463 1469 1476
1439 1436 1432 1429 1425 1421 1417 1413 1409 1405 1401 1397 1393 1389 1385 1381 1377 1373 1371 1368 1367 1368 1371 1376 1381 1384 1387 1397 1409 1416 1422 1430 1440 1449 1457 1465 1470 1477
1438 1436 1433 1430 1427 1424 1420 1417 1413 1410 1406 1402 1399 1395 1392 1388 1385 1382 1380 1378 1375 1375 1376 1379 1383 1386 1390 1397 1407 1418 1427 1434 1441 1449 1457 1464 1470 1476
1437 1435 1433 1430 1428 1426 1423 1420 1417 1413 1410 1407 1404 1401 1399 1396 1393 1390 1388 1387 1384 1383 1382 1384 1387 1391 1395 1402 1410 1420 1429 1437 1444 1450 1457 1463 1469 1473
1435 1433 1431 1429 1428 1426 1424 1421 1419 1417 1414 1411 1409 1407 1404 1402 1400 1398 1396 1394 1393 1392 1392 1393 1396 1399 1402 1406 1413 1422 1431 1438 1445 1451 1458 1463 1466 1471
1433 1431 1429 1427 1426 1425 1424 1422 1421 1419 1417 1415 1413 1411 1410 1408 1406 1405 1404 1403 1402 1401 1401 1402 1404 1407 1410 1414 1419 1426 1433 1440 1446 1452 1458 1462 1466 1471